Location: Unspecified
(48.2082°N, 0.0000°E)
Time: 05:13:09
(UTC+00:00)

Tiros 1 despin weight - Pass Details

Date: 24 June 2019
Orbit: 594 x 642 km, 48.2° (Epoch: 17 August)

Event Time Altitude Azimuth Distance (km) Brightness Sun altitude
Rises 01:57:42 0° 276° (W) 2,839 ? -13.8°
Reaches altitude 10° 01:59:59 10° 276° (W) 1,932 ? -13.7°
Maximum altitude 02:04:25 85° 189° (S) 601 ? -13.3°
Drops below altitude 10° 02:08:50 10° 101° (E) 1,926 ? -13.0°
Sets 02:11:07 0° 101° (E) 2,829 ? -12.8°
